IT9NKT-WX Weather Reports


time (UTC)temp
F
wind
direction
speed
knots
gust
knots
rain 1hr
in
rain 24hr
in
rain mn
in
humidity
%
barometer
mb
20260906090503 91 114 1.7 5.2 0.00 0.00 0.00 40 1020.3
20260906090003 92 109 0.9 3.5 0.00 0.00 0.00 39 1020.2
20260906085503 93 124 0.9 3.5 0.00 0.00 0.00 37 1020.1
20260906085003 93 154 0.9 2.6 0.00 0.00 0.00 36 1020.0
20260906084503 92 144 0.9 2.6 0.00 0.00 0.00 37 1020.1
20260906084003 94 135 0.9 2.6 0.00 0.00 0.00 36 1020.0
20260906083503 93 163 0.9 5.2 0.00 0.00 0.00 37 1020.1
20260906083003 92 171 0.9 5.2 0.00 0.00 0.00 37 1020.0
20260906082503 92 164 0.9 2.6 0.00 0.00 0.00 38 1020.1
20260906082003 92 174 0.9 2.6 0.00 0.00 0.00 38 1019.9
20260906081504 91 168 0.9 2.6 0.00 0.00 0.00 40 1019.8
20260906081213 90 155 0.9 2.6 0.00 0.00 0.00 41 1020.0
20260906080503 89 116 0.9 2.6 0.00 0.00 0.00 44 1019.9
20260906080003 90 125 0.9 5.2 0.00 0.00 0.00 44 1019.9
20260906075503 90 133 0.9 5.2 0.00 0.00 0.00 44 1019.9
20260906075216 90 135 0.9 2.6 0.00 0.00 0.00 44 1019.9
20260906074504 89 111 0.9 1.7 0.00 0.00 0.00 46 1019.7
20260906074216 89 100 0.9 2.6 0.00 0.00 0.00 45 1019.8
20260906073504 89 170 0.9 3.5 0.00 0.00 0.00 46 1019.6
20260906073004 89 177 0.9 3.5 0.00 0.00 0.00 46 1019.7
20260906072715 89 158 0.9 3.5 0.00 0.00 0.00 47 1019.6
20260906072003 89 123 0.9 2.6 0.00 0.00 0.00 48 1019.6
20260906071503 89 168 0.9 2.6 0.00 0.00 0.00 47 1019.5
20260906071004 89 170 0.9 2.6 0.00 0.00 0.00 48 1019.6
20260906070503 89 179 0.9 1.7 0.00 0.00 0.00 49 1019.4
20260906070003 88 183 0.9 1.7 0.00 0.00 0.00 45 1019.4
20260906065504 89 184 0.9 1.7 0.00 0.00 0.00 46 1019.2
20260906065003 89 177 0.9 1.7 0.00 0.00 0.00 46 1019.4
20260906064503 89 171 0.0 1.7 0.00 0.00 0.00 47 1019.4
20260906064003 89 187 0.0 0.9 0.00 0.00 0.00 47 1019.3
20260906063504 88 175 0.0 0.9 0.00 0.00 0.00 47 1019.2
20260906063004 88 172 0.0 0.9 0.00 0.00 0.00 50 1019.3
20260906062716 88 170 0.0 0.9 0.00 0.00 0.00 50 1019.3
20260906062003 87 163 0.0 1.7 0.00 0.00 0.00 51 1019.4
20260906061504 88 180 0.0 0.9 0.00 0.00 0.00 50 1019.2
20260906061003 86 187 0.0 0.9 0.00 0.00 0.00 51 1019.4
20260906060713 86 183 0.0 0.9 0.00 0.00 0.00 50 1019.4
20260906060004 86 159 0.0 0.9 0.00 0.00 0.00 47 1019.3
20260906055503 85 155 0.0 0.9 0.00 0.00 0.00 46 1019.3
20260906055003 84 175 0.0 0.9 0.00 0.00 0.00 46 1019.3
20260906054503 84 172 0.0 0.9 0.00 0.00 0.00 47 1019.4
20260906054003 84 190 0.0 0.9 0.00 0.00 0.00 47 1019.3
20260906053504 83 187 0.0 0.0 0.00 0.00 0.00 47 1019.5
20260906053213 83 176 0.0 0.9 0.00 0.00 0.00 48 1019.3
20260906052503 81 161 0.0 1.7 0.00 0.00 0.00 50 1019.2
20260906052004 80 164 0.0 1.7 0.00 0.00 0.00 50 1019.2
20260906051503 80 180 0.0 1.7 0.00 0.00 0.00 51 1019.1
20260906051003 79 197 0.0 0.9 0.00 0.00 0.00 52 1019.0
20260906050503 78 204 0.0 0.9 0.00 0.00 0.00 53 1019.2
20260906050003 78 209 0.9 1.7 0.00 0.00 0.00 54 1019.2
20260906045714 77 210 0.9 1.7 0.00 0.00 0.00 54 1019.2
20260906045003 77 213 0.9 1.7 0.00 0.00 0.00 54 1019.2
20260906044504 77 215 0.9 1.7 0.00 0.00 0.00 55 1019.2
20260906044004 77 216 0.9 1.7 0.00 0.00 0.00 54 1019.4
20260906043504 77 223 0.9 1.7 0.00 0.00 0.00 55 1019.3
20260906043003 77 229 0.9 0.9 0.00 0.00 0.00 54 1019.1
20260906042503 77 221 0.9 0.9 0.00 0.00 0.00 55 1019.2
20260906042003 77 209 0.0 0.9 0.00 0.00 0.00 56 1019.0
20260906041504 77 212 0.0 0.9 0.00 0.00 0.00 56 1019.0
20260906041003 76 228 0.0 0.9 0.00 0.00 0.00 57 1019.1
20260906040504 77 223 0.0 0.9 0.00 0.00 0.00 57 1019.0
20260906040004 77 222 0.0 0.9 0.00 0.00 0.00 58 1018.9
20260906035504 77 205 0.0 0.9 0.00 0.00 0.00 59 1018.8
20260906035003 78 218 0.0 0.9 0.00 0.00 0.00 58 1018.8
20260906034503 78 221 0.0 0.9 0.00 0.00 0.00 58 1018.9
20260906034004 78 223 0.0 0.9 0.00 0.00 0.00 56 1018.7
20260906033504 78 257 0.0 0.9 0.00 0.00 0.00 56 1019.0
20260906033215 79 266 0.9 1.7 0.00 0.00 0.00 57 1018.9
20260906032504 79 281 0.9 1.7 0.00 0.00 0.00 57 1019.0
20260906032003 79 281 0.9 1.7 0.00 0.00 0.00 57 1018.8
20260906031714 79 277 0.9 1.7 0.00 0.00 0.00 57 1018.7
20260906031004 78 249 0.0 0.9 0.00 0.00 0.00 57 1018.8
20260906030504 78 247 0.9 0.9 0.00 0.00 0.00 58 1018.8
20260906030003 79 246 0.9 1.7 0.00 0.00 0.00 58 1018.8
20260906025715 79 252 0.9 1.7 0.00 0.00 0.00 57 1018.8
20260906025213 79 255 0.9 1.7 0.00 0.00 0.00 55 1018.6
20260906024503 79 237 0.0 0.9 0.00 0.00 0.00 53 1018.9
20260906024003 79 244 0.0 0.9 0.00 0.00 0.00 53 1018.8
20260906023504 79 253 0.0 0.9 0.00 0.00 0.00 52 1018.7
20260906023216 80 241 0.0 0.9 0.00 0.00 0.00 52 1018.7
20260906022713 79 247 0.0 0.9 0.00 0.00 0.00 52 1018.7
20260906022216 79 238 0.0 0.9 0.00 0.00 0.00 52 1018.7
20260906021503 79 230 0.0 0.9 0.00 0.00 0.00 53 1018.8
20260906021004 80 248 0.0 0.9 0.00 0.00 0.00 52 1018.7
20260906020504 80 271 0.9 1.7 0.00 0.00 0.00 51 1018.8
20260906020003 80 269 0.9 1.7 0.00 0.00 0.00 52 1018.8
20260906015503 80 263 0.9 1.7 0.00 0.00 0.00 51 1018.9
20260906015004 79 265 0.9 1.7 0.00 0.00 0.00 51 1018.9
20260906014717 79 262 0.0 1.7 0.00 0.00 0.00 52 1018.9
20260906014004 79 207 0.0 0.9 0.00 0.00 0.00 51 1018.9
20260906013503 78 196 0.0 0.9 0.00 0.00 0.00 52 1019.1
20260906013004 78 182 0.0 0.9 0.00 0.00 0.00 52 1018.8
20260906012503 78 166 0.0 0.9 0.00 0.00 0.00 53 1019.0
20260906012004 79 181 0.0 0.9 0.00 0.00 0.00 52 1019.1
20260906011503 78 191 0.0 0.9 0.00 0.00 0.00 53 1019.0
20260906011003 79 198 0.0 0.9 0.00 0.00 0.00 53 1019.0
20260906010716 79 201 0.0 0.9 0.00 0.00 0.00 53 1019.2
20260906010003 79 194 0.0 0.9 0.00 0.00 0.00 53 1019.1
20260906005504 79 184 0.0 0.9 0.00 0.00 0.00 53 1019.1
20260906005004 79 186 0.0 0.9 0.00 0.00 0.00 54 1019.1
20260906004503 79 181 0.0 0.9 0.00 0.00 0.00 54 1019.2
20260906004003 79 182 0.0 0.9 0.00 0.00 0.00 54 1019.2
20260906003503 79 190 0.0 0.9 0.00 0.00 0.00 55 1019.3
20260906003004 79 193 0.0 1.7 0.00 0.00 0.00 56 1019.2
20260906002715 79 192 0.0 1.7 0.00 0.00 0.00 56 1019.0
20260906002003 79 188 0.0 0.9 0.00 0.00 0.00 57 1019.4
20260906001503 79 204 0.0 0.9 0.00 0.00 0.00 57 1019.2
20260906001213 79 209 0.0 0.9 0.00 0.00 0.00 57 1019.1
20260906000503 79 206 0.0 0.9 0.00 0.00 0.00 58 1019.2
20260906000003 79 196 0.0 0.9 0.00 0.00 0.00 59 1019.3
20260905235718 79 199 0.0 0.9 0.00 0.00 0.00 59 1019.4
20260905235003 80 196 0.0 0.0 0.00 0.00 0.00 61 1019.4
20260905234504 80 196 0.0 0.9 0.00 0.00 0.00 62 1019.3
20260905234003 80 214 0.0 0.9 0.00 0.00 0.00 61 1019.4
20260905233714 80 0 0.0 0.0 0.00 0.00 0.00 61 1019.3
20260905233217 80 0 0.0 0.0 0.00 0.00 0.00 62 1019.5
20260905232504 80 0 0.0 0.0 0.00 0.00 0.00 64 1019.4
20260905232213 80 0 0.0 0.0 0.00 0.00 0.00 64 1019.5
20260905231504 80 0 0.0 0.0 0.00 0.00 0.00 64 1019.4
20260905230718 80 0 0.0 0.0 0.00 0.00 0.00 64 1019.6
20260905230003 80 0 0.0 0.0 0.00 0.00 0.00 64 1019.5
20260905225713 80 243 0.0 0.9 0.00 0.00 0.00 64 1019.7
20260905225216 80 243 0.0 0.9 0.00 0.00 0.00 64 1019.7
20260905224714 81 0 0.0 0.0 0.00 0.00 0.00 64 1019.8
20260905224004 81 0 0.0 0.0 0.00 0.00 0.00 63 1019.6
20260905223504 81 0 0.0 0.0 0.00 0.00 0.00 63 1019.5
20260905223003 81 0 0.0 0.0 0.00 0.00 0.00 64 1019.5
20260905222504 81 0 0.0 0.0 0.00 0.00 0.00 64 1019.4
20260905222004 81 0 0.0 0.0 0.00 0.00 0.00 63 1019.5
20260905221504 81 0 0.0 0.0 0.00 0.00 0.00 63 1019.6
20260905221215 81 0 0.0 0.0 0.00 0.00 0.00 63 1019.4
20260905220503 81 0 0.0 0.0 0.00 0.00 0.00 63 1019.6
20260905220007 81 0 0.0 0.0 0.00 0.00 0.00 63 1019.5
20260905215503 81 0 0.0 0.0 0.00 0.00 0.00 63 1019.5
20260905215003 82 0 0.0 0.0 0.00 0.00 0.00 63 1019.5
20260905214505 82 0 0.0 0.0 0.00 0.00 0.00 63 1019.5
20260905214003 82 210 0.0 0.9 0.00 0.00 0.00 63 1019.4
20260905213716 82 207 0.0 0.9 0.00 0.00 0.00 63 1019.4
20260905213004 82 197 0.0 0.9 0.00 0.00 0.00 62 1019.6
20260905212504 82 247 0.0 0.9 0.00 0.00 0.00 62 1019.6
20260905212004 82 199 0.0 0.9 0.00 0.00 0.00 63 1019.4
20260905211504 82 200 0.0 0.9 0.00 0.00 0.00 63 1019.5
20260905211004 82 201 0.0 0.9 0.00 0.00 0.00 63 1019.5
20260905210503 82 0 0.0 0.0 0.00 0.00 0.00 63 1019.6
20260905210004 82 202 0.0 0.9 0.00 0.00 0.00 63 1019.4
20260905205715 83 201 0.0 0.9 0.00 0.00 0.00 63 1019.3
20260905205004 83 206 0.0 0.9 0.00 0.00 0.00 63 1019.5
20260905204504 83 212 0.0 0.9 0.00 0.00 0.00 62 1019.4
20260905204003 83 0 0.0 0.0 0.00 0.00 0.00 62 1019.4
20260905203504 83 251 0.0 0.9 0.00 0.00 0.00 62 1019.4
20260905203215 83 249 0.0 0.9 0.00 0.00 0.00 62 1019.6
20260905202712 83 247 0.0 0.9 0.00 0.00 0.00 61 1019.4
20260905202004 83 260 0.0 0.9 0.00 0.00 0.00 62 1019.6
20260905201503 83 266 0.9 0.9 0.00 0.00 0.00 62 1019.7
20260905201004 84 284 0.9 1.7 0.00 0.00 0.00 62 1019.6
20260905200503 84 296 0.9 1.7 0.00 0.00 0.00 62 1019.6
20260905200004 84 302 0.9 1.7 0.00 0.00 0.00 62 1019.6
20260905195715 84 295 0.9 1.7 0.00 0.00 0.00 62 1019.5
20260905195004 84 290 0.9 1.7 0.00 0.00 0.00 62 1019.5
20260905194504 84 291 0.9 1.7 0.00 0.00 0.00 62 1019.7
20260905194214 84 294 0.9 1.7 0.00 0.00 0.00 62 1019.7
20260905193503 84 294 0.9 1.7 0.00 0.00 0.00 62 1019.7
20260905193003 84 275 0.0 0.9 0.00 0.00 0.00 62 1019.6
20260905192503 84 319 0.0 1.7 0.00 0.00 0.00 62 1019.6
20260905192003 84 307 0.9 1.7 0.00 0.00 0.00 62 1019.5
20260905191504 84 319 0.9 1.7 0.00 0.00 0.00 62 1019.5
20260905191003 84 339 0.9 1.7 0.00 0.00 0.00 61 1019.4
20260905190503 84 172 0.0 0.9 0.00 0.00 0.00 61 1019.1
20260905190219 84 154 0.0 0.9 0.00 0.00 0.00 61 1019.2
20260905185503 84 103 0.0 2.6 0.00 0.00 0.00 61 1019.1
20260905185005 85 79 0.9 2.6 0.00 0.00 0.00 61 1019.2
20260905184504 85 32 0.9 1.7 0.00 0.00 0.00 60 1019.1
20260905184004 85 36 0.0 1.7 0.00 0.00 0.00 59 1019.1
20260905183504 85 77 0.0 1.7 0.00 0.00 0.00 58 1019.0
20260905183216 85 80 0.9 1.7 0.00 0.00 0.00 57 1019.3
20260905182503 85 93 0.0 1.7 0.00 0.00 0.00 57 1019.2
20260905182004 85 100 0.0 1.7 0.00 0.00 0.00 57 1019.2
20260905181504 85 115 0.0 1.7 0.00 0.00 0.00 56 1019.1
20260905181003 85 107 0.0 1.7 0.00 0.00 0.00 56 1018.9
20260905180504 85 103 0.0 1.7 0.00 0.00 0.00 56 1018.9
20260905180214 85 110 0.9 2.6 0.00 0.00 0.00 55 1018.9
20260905175504 85 117 0.9 2.6 0.00 0.00 0.00 56 1018.7
20260905175005 85 116 0.9 2.6 0.00 0.00 0.00 56 1018.6
20260905174503 85 112 0.9 2.6 0.00 0.00 0.00 56 1018.7
20260905174003 85 110 0.0 2.6 0.00 0.00 0.00 57 1019.1
20260905173504 85 82 0.9 2.6 0.00 0.00 0.00 57 1018.8
20260905173004 85 69 0.9 2.6 0.00 0.00 0.00 56 1018.8
20260905172504 85 80 0.9 3.5 0.00 0.00 0.00 56 1018.7
20260905172003 85 87 0.9 3.5 0.00 0.00 0.00 57 1018.6
20260905171504 85 114 0.9 1.7 0.00 0.00 0.00 56 1018.8
20260905171004 85 129 0.9 2.6 0.00 0.00 0.00 56 1018.7
20260905170716 85 131 0.9 2.6 0.00 0.00 0.00 56 1018.8
20260905170003 85 148 1.7 3.5 0.00 0.00 0.00 55 1018.9
20260905165504 85 157 0.9 2.6 0.00 0.00 0.00 55 1019.0
20260905165215 85 156 0.9 2.6 0.00 0.00 0.00 56 1018.8
20260905164503 85 124 1.7 3.5 0.00 0.00 0.00 56 1018.9
20260905164003 85 124 1.7 5.2 0.00 0.00 0.00 57 1018.9
20260905163504 85 130 0.9 5.2 0.00 0.00 0.00 58 1018.7
20260905163004 85 118 0.9 3.5 0.00 0.00 0.00 59 1018.7
20260905162504 85 134 1.7 3.5 0.00 0.00 0.00 60 1018.7
20260905162004 85 149 1.7 6.1 0.00 0.00 0.00 60 1018.5
20260905161504 86 151 1.7 6.1 0.00 0.00 0.00 61 1018.7
20260905161003 86 144 0.9 5.2 0.00 0.00 0.00 61 1018.6
20260905160503 86 124 1.7 5.2 0.00 0.00 0.00 61 1018.6
20260905160004 86 113 1.7 5.2 0.00 0.00 0.00 62 1018.8
20260905155504 86 102 1.7 3.5 0.00 0.00 0.00 61 1018.7
20260905155003 86 93 1.7 4.3 0.00 0.00 0.00 62 1018.7
20260905154504 86 93 1.7 6.1 0.00 0.00 0.00 62 1018.6
20260905154003 86 100 1.7 6.1 0.00 0.00 0.00 61 1018.7
20260905153503 86 120 0.9 5.2 0.00 0.00 0.00 61 1018.8
20260905153213 86 101 0.9 4.3 0.00 0.00 0.00 61 1018.9
20260905152504 86 99 1.7 6.1 0.00 0.00 0.00 62 1018.7
20260905152003 86 123 1.7 6.1 0.00 0.00 0.00 62 1018.8
20260905151504 86 122 1.7 5.2 0.00 0.00 0.00 61 1018.7
20260905151003 86 118 2.6 7.0 0.00 0.00 0.00 61 1018.8
20260905150503 87 102 1.7 7.0 0.00 0.00 0.00 59 1018.8
20260905150004 86 88 1.7 5.2 0.00 0.00 0.00 62 1018.5
20260905145504 86 107 1.7 5.2 0.00 0.00 0.00 62 1018.6
20260905145005 86 115 1.7 7.0 0.00 0.00 0.00 63 1018.8
20260905144503 86 87 1.7 7.0 0.00 0.00 0.00 63 1018.8
20260905144004 86 78 2.6 6.1 0.00 0.00 0.00 63 1018.8
20260905143503 87 96 2.6 6.1 0.00 0.00 0.00 61 1018.7
20260905143213 87 111 3.5 9.6 0.00 0.00 0.00 61 1018.7
20260905142503 87 125 2.6 9.6 0.00 0.00 0.00 62 1018.7
20260905142214 87 138 1.7 6.1 0.00 0.00 0.00 62 1018.8
20260905141503 87 126 2.6 9.6 0.00 0.00 0.00 62 1018.4
20260905141003 87 116 2.6 8.7 0.00 0.00 0.00 60 1018.5
20260905140503 88 121 2.6 7.8 0.00 0.00 0.00 58 1018.6
20260905140003 88 135 3.5 7.0 0.00 0.00 0.00 54 1018.4
20260905135503 88 130 4.3 12.2 0.00 0.00 0.00 56 1018.7
20260905135217 88 111 3.5 12.2 0.00 0.00 0.00 53 1018.6
20260905134504 88 103 3.5 11.3 0.00 0.00 0.00 53 1018.5
20260905134003 89 93 3.5 11.3 0.00 0.00 0.00 48 1018.5
20260905133716 89 96 4.3 11.3 0.00 0.00 0.00 43 1018.6
20260905133004 90 115 3.5 9.6 0.00 0.00 0.00 49 1018.7
20260905132503 90 115 3.5 9.6 0.00 0.00 0.00 44 1018.7
20260905132004 90 112 2.6 8.7 0.00 0.00 0.00 45 1018.3
20260905131503 90 94 2.6 8.7 0.00 0.00 0.00 46 1018.4
20260905131004 91 69 2.6 6.1 0.00 0.00 0.00 44 1018.4
20260905130503 90 85 2.6 6.1 0.00 0.00 0.00 41 1018.5
20260905130003 90 101 3.5 8.7 0.00 0.00 0.00 40 1018.5
20260905125503 90 100 3.5 8.7 0.00 0.00 0.00 40 1018.6
20260905125003 91 91 2.6 7.0 0.00 0.00 0.00 39 1018.5
20260905124503 91 104 2.6 6.1 0.00 0.00 0.00 39 1018.7
20260905124003 90 115 3.5 8.7 0.00 0.00 0.00 37 1018.6
20260905123504 91 88 2.6 8.7 0.00 0.00 0.00 37 1018.6
20260905123003 90 65 1.7 8.7 0.00 0.00 0.00 39 1018.7
20260905122504 89 85 1.7 8.7 0.00 0.00 0.00 40 1018.8
20260905122216 89 85 1.7 6.1 0.00 0.00 0.00 43 1019.0
20260905121503 89 94 2.6 8.7 0.00 0.00 0.00 48 1019.0
20260905121003 90 103 1.7 7.0 0.00 0.00 0.00 45 1018.9
20260905120503 91 107 2.6 8.7 0.00 0.00 0.00 44 1018.9
20260905120004 89 94 2.6 8.7 0.00 0.00 0.00 45 1019.0
20260905115503 89 99 2.6 7.0 0.00 0.00 0.00 48 1019.0
20260905115003 90 117 1.7 6.1 0.00 0.00 0.00 44 1019.1
20260905114504 91 123 2.6 8.7 0.00 0.00 0.00 43 1019.1
20260905114004 90 121 2.6 8.7 0.00 0.00 0.00 46 1019.2
20260905113504 89 111 2.6 7.8 0.00 0.00 0.00 46 1019.2
20260905113004 90 108 2.6 7.8 0.00 0.00 0.00 46 1019.2
20260905112504 90 123 1.7 6.1 0.00 0.00 0.00 43 1019.2
20260905112003 91 113 1.7 5.2 0.00 0.00 0.00 45 1019.1
20260905111503 90 118 1.7 7.0 0.00 0.00 0.00 49 1019.2
20260905111003 90 128 2.6 7.0 0.00 0.00 0.00 47 1019.4
20260905110504 90 114 1.7 6.1 0.00 0.00 0.00 46 1019.3
20260905110004 91 123 1.7 5.2 0.00 0.00 0.00 48 1019.5
20260905105503 90 147 1.7 5.2 0.00 0.00 0.00 49 1019.4
20260905105004 90 133 1.7 6.1 0.00 0.00 0.00 50 1019.5
20260905104503 89 122 1.7 6.1 0.00 0.00 0.00 51 1019.4
20260905104003 91 127 1.7 5.2 0.00 0.00 0.00 51 1019.6
20260905103503 89 90 1.7 6.1 0.00 0.00 0.00 49 1019.3
20260905103003 88 82 1.7 6.1 0.00 0.00 0.00 54 1019.3
20260905102714 89 92 0.9 6.1 0.00 0.00 0.00 53 1019.6
20260905102003 89 108 1.7 5.2 0.00 0.00 0.00 54 1019.6
20260905101715 90 111 1.7 5.2 0.00 0.00 0.00 53 1019.5
20260905101003 91 114 1.7 7.0 0.00 0.00 0.00 52 1019.6
20260905100716 90 112 1.7 7.0 0.00 0.00 0.00 49 1019.6
20260905100004 89 88 0.9 5.2 0.00 0.00 0.00 52 1019.7
20260905095504 89 132 1.7 5.2 0.00 0.00 0.00 51 1019.5
20260905095215 90 137 1.7 5.2 0.00 0.00 0.00 51 1019.7
20260905094504 91 148 0.9 6.1 0.00 0.00 0.00 48 1019.6
20260905094004 92 172 1.7 6.1 0.00 0.00 0.00 49 1019.7
20260905093503 91 128 0.9 2.6 0.00 0.00 0.00 46 1019.9
20260905093003 89 94 0.9 5.2 0.00 0.00 0.00 50 1019.7
20260905092503 89 92 0.9 5.2 0.00 0.00 0.00 48 1019.7
20260905092003 89 99 0.9 3.5 0.00 0.00 0.00 47 1019.8
20260905091504 92 150 0.9 2.6 0.00 0.00 0.00 45 1019.7
20260905091004 92 179 0.9 2.6 0.00 0.00 0.00 45 1019.6